SL-8 R/B (12139 NORAD) Tracking and Keplerian Element Data

This shows tracking and keplerian element data for the satellite.

Feedback or suggestion? Click here.




ElementValue
Catalog12139
NameSL-8 R/B
Epoch Orbit9060
Epoch Day15.92095406
Epoch Year2022
RAAN187.4852
Inclination82.9483
Eccentricity0.0450984
Argument of Perigee175.0644
Mean Anonmoly185.5247
Mean Motion14.60041496
Decay Rate0.00011207
L11 12139U 81003B 22015.92095406 .00011207 00000+0 52013-3 0 9997
L22 12139 82.9483 187.4852 0450984 175.0644 185.5247 14.60041496 90606

Live tracking and technical data element details for SL-8 R/B (NORAD 12139). SL-8 R/B can be tracked NOW for your location showing map with azimuth and elevation plus other details from your city location.

Track the satellite on the map from your city or location and see movement details for azimuth, elevation, latitude, longitude, range, height, and movement on the map or in text.







IsCatalogInMostPopularTable: catalog: 12139, numindb: 259
Update: records affected: 1



GetName: 12139 SL-8 R/B

Hit Count: updated at: Mon, 17 Jan 2022 01:09:30 GMT